SCP
0 0 0 0 0 0 0 0 0 0 0 0 0 0 0 0 0 0 0 0 0 0 0 0 0 0 0 0 0 0 0 0 0 0 0 0 0 0 0 0 0 0 0 0
0 0 0 0 0 0 0 0 0 0 0 0 0 0 0 0 0 0 0 0 0 0 0 0 0 0 0 0 0 0 0 0 0 0 0 0 0 0 0 0 0 0 0 0
0 0 0 0 0 0 0 0 0 0 0 0 0 0 0 0 0 0 0 0 0 0 0 0 0 0 0 0 0 0 0 0 0 0 0 0 0 0 0 0 0 0 0 0
0 0 0 0 0 0 0 0 0 0 0 0 0 0 0 0 0 0 0 0 0 0 0 0 0 0 0 0 0 0 0 0 0 0 0 0 0 0 0 0 0 0 0 0
0 0 0 0 0 0 0 0 0 0 0 0 0 0 0 0 0 0 0 0 0 0 0 0 0 0 0 0 0 0 0 0 0 0 0 0 0 0 0 0 0 0 0 0
0 0 0 0 0 0 0 0 0 0 0 0 0 0 0 0 0 0 0 0 0 0 0 0 0 0 0 0 0 0 0 0 0 0 0 0 0 0 0 0 0 0 0 0
0 0 0 0 0 0 0 0 0 0 0 0 0 0 0 0 0 0 0 0 0 0 0 0 0 0 0 0 0 0 0 0 0 0 0 0 0 0 0 0 0 0 0 0
0 0 0 0 0 0 0 0 0 0 0 0 0 0 0 0 0 0 0 0 0 0 0 0 0 0 0 0 0 0 0 0 0 0 0 0 0 0 0 0 0 0 0 0
0 0 0 0 0 0 0 0 0 0 0 0 0 0 0 0 0 0 0 0 0 0 0 0 0 0 0 0 0 0 0 0 0 0 0 0 0 0 0 0 0 0 0 0
0 0 0 0 0 0 0 0 0 0 0 0 0 0 0 0 0 0 0 0 0 0 0 0 0 0 0 0 0 0 0 0 0 0 0 0 0 0 0 0 0 0 0 0
0 0 0 0 0 0 0 0 0 0 0 0 0 0 0 0 0 0 0 0 0 0 0 0 0 0 0 0 0 0 0 0 0 0 0 0 0 0 0 0 0 0 0 0
0 0 0 0 0 0 0 0 0 0 0 0 0 0 0 0 0 0 0 0 0 0 0 0 0 0 0 0 0 0 0 0 0 0 0 0 0 0 0 0 0 0 0 0
0 0 0 0 0 0 0 0 0 0 0 0 0 0 0 0 0 0 0 0 0 0 0 0 0 0 0 0 0 0 0 0 0 0 0 0 0 0 0 0 0 0 0 0
0 0 0 0 0 0 0 0 0 0 0 0 0 0 0 0 0 0 0 0 0 0 0 0 0 0 0 0 0 0 0 0 0 0 0 0 0 0 0 0 0 0 0 0
0 0 0 0 0 0 0 0 0 0 0 0 0 0 0 0 0 0 0 0 0 0 0 0 0 0 0 0 0 0 0 0 0 0 0 0 0 0 0 0 0 0 0 0
0 0 0 0 0 0 0 0 0 0 0 0 0 0 0 0 0 0 0 0 0 0 0 0 0 0 0 0 0 0 0 0 0 0 0 0 0 0 0 0 0 0 0 0
0 0 0 0 0 0 0 0 0 0 0 0 0 0 0 0 0 0 0 0 0 0 0 0 0 0 0 0 0 0 0 0 0 0 0 0 0 0 0 0 0 0 0 0
0 0 0 0 0 0 0 0 0 0 0 0 0 0 0 0 0 0 0 0 0 0 0 0 0 0 0 0 0 0 0 0 0 0 0 0 0 0 0 0 0 0 0 0
0 0 0 0 0 0 0 0 0 0 0 0 0 0 0 0 0 0 0 0 0 0 0 0 0 0 0 0 0 0 0 0 0 0 0 0 0 0 0 0 0 0 0 0
0 0 0 0 0 0 0 0 0 0 0 0 0 0 0 0 0 0 0 0 0 0 0 0 0 0 0 0 0 0 0 0 0 0 0 0 0 0 0 0 0 0 0 0
0 0 0 0 0 0 0 0 0 0 0 0 0 0 0 0 0 0 0 0 0 0 0 0 0 0 0 0 0 0 0 0 0 0 0 0 0 0 0 0 0 0 0 0
0 0 0 0 0 0 0 0 0 0 0 0 0 0 0 0 0 0 0 0 0 0 0 0 0 0 0 0 0 0 0 0 0 0 0 0 0 0 0 0 0 0 0 0
0 0 0 0 0 0 0 0 0 0 0 0 0 0 0 0 0 0 0 0 0 0 0 0 0 0 0 0 0 0 0 0 0 0 0 0 0 0 0 0 0 0 0 0
0 0 0 0 0 0 0 0 0 0 0 0 0 0 0 0 0 0 0 0 0 0 0 0 0 0 0 0 0 0 0 0 0 0 0 0 0 0 0 0 0 0 0 0
0 0 0 0 0 0 0 0 0 0 0 0 0 0 0 0 0 0 0 0 0 0 0 0 0 0 0 0 0 0 0 0 0 0 0 0 0 0 0 0 0 0 0 0
0 0 0 0 0 0 0 0 0 0 0 0 0 0 0 0 0 0 0 0 0 0 0 0 0 0 0 0 0 0 0 0 0 0 0 0 0 0 0 0 0 0 0 -0
Wind_Speed_500mb
36 15 28 26 19 18 19 18 12 13 6 8 13 10 17 28 17 11 17 19 25 23 29 33 38 46 48 46 41 44 42 45 41 38 39 38 38 36 37 36 36 37 35 34
15 26 19 19 23 19 11 18 12 11 9 5 14 19 14 26 20 20 20 15 14 19 23 24 30 34 40 46 50 49 47 43 44 39 40 41 38 39 37 35 37 40 44 43
16 12 22 23 11 12 12 16 11 10 8 2 2 8 17 3 10 12 14 20 19 18 16 14 17 25 32 38 45 52 50 45 42 37 32 33 38 39 33 29 29 30 32 33
9 8 16 15 16 16 10 6 15 24 14 9 12 8 14 14 14 14 20 19 21 24 21 17 17 18 22 28 37 45 48 47 42 29 30 25 26 27 25 23 21 20 22 26
9 12 14 13 14 14 5 15 14 11 8 5 6 3 2 18 15 15 22 23 22 24 23 16 12 11 11 13 18 30 40 49 48 46 23 18 15 11 9 12 15 15 18 17
7 3 4 6 10 9 14 17 12 8 6 3 11 13 8 12 15 17 28 27 26 24 24 23 19 17 20 20 20 23 28 31 34 39 40 30 19 16 16 14 10 13 13 16
7 5 4 6 17 3 11 14 5 3 2 10 14 6 14 7 13 23 33 40 34 26 27 30 28 28 29 31 33 33 31 32 28 25 26 21 17 15 14 13 11 9 7 7
14 8 15 10 11 16 13 15 10 12 9 8 7 12 10 6 24 51 45 44 41 38 33 31 34 38 38 38 39 40 41 43 39 35 32 27 25 22 18 15 13 12 12 14
15 5 6 8 7 12 12 11 7 13 4 8 10 9 2 4 14 39 48 47 42 38 35 34 35 38 41 42 42 40 40 41 38 35 32 27 24 20 18 16 14 15 16 18
11 11 6 2 3 3 4 14 7 1 9 8 11 7 10 17 25 23 31 46 46 43 41 38 37 39 40 40 40 39 37 37 35 31 27 23 18 16 15 15 16 18 20 24
1 9 3 6 10 13 4 7 6 9 8 10 5 11 2 35 36 33 40 49 54 51 47 44 42 40 40 40 40 38 34 31 28 24 21 18 15 14 14 16 19 23 28 32
3 10 8 5 1 4 6 11 13 9 7 2 6 10 6 4 38 50 50 53 55 52 50 48 46 43 41 40 37 34 30 26 23 20 17 13 12 13 15 18 22 26 31 37
14 6 7 6 5 3 8 8 7 10 7 9 10 11 5 1 35 51 55 60 59 53 50 47 46 44 42 40 38 33 29 24 21 16 12 10 9 11 16 22 29 35 42 47
12 7 14 19 11 16 15 19 16 15 6 9 12 8 6 12 26 45 58 66 65 61 56 53 48 46 44 41 37 33 28 23 19 13 8 6 11 19 26 32 37 41 46 49
5 13 12 4 6 4 14 27 23 18 37 17 38 19 16 20 24 55 57 64 66 66 63 59 57 54 50 45 40 34 27 21 15 8 5 9 16 22 28 35 40 43 45 48
6 5 6 4 11 10 2 8 27 37 41 23 22 17 16 50 50 51 61 63 64 72 71 67 66 60 55 49 43 36 29 21 13 5 4 12 21 30 36 39 41 46 49 54
15 11 6 15 8 9 6 25 26 26 29 38 36 43 8 14 36 55 64 79 78 79 81 79 72 65 58 51 43 36 28 19 10 4 11 21 30 36 39 41 44 50 56 61
13 12 5 7 6 9 28 17 27 36 24 34 27 12 22 31 67 75 87 91 75 79 85 83 77 69 61 54 45 35 26 17 7 9 19 27 32 35 39 44 51 58 64 68
7 9 8 10 8 10 14 11 16 20 32 23 42 36 25 28 48 45 76 81 89 91 89 88 80 71 62 53 44 33 23 13 9 16 23 28 31 36 43 50 57 63 70 72
7 5 6 7 12 21 15 15 24 15 28 25 38 17 22 38 19 23 73 80 80 82 90 85 78 71 62 52 41 31 22 13 14 19 22 27 32 39 46 55 60 63 67 70
8 3 26 22 7 16 11 15 38 20 18 24 54 55 56 28 44 40 66 71 81 88 89 86 79 71 60 48 39 30 19 14 16 18 19 24 33 42 49 54 58 63 65 66
26 22 12 9 18 34 20 9 27 8 7 7 14 29 47 47 22 35 71 84 90 91 83 81 78 69 59 46 36 27 17 16 16 15 19 26 33 40 46 52 56 58 63 69
7 7 12 17 10 1 38 8 16 6 6 6 12 17 31 47 40 59 75 83 86 83 87 81 74 67 51 45 33 21 18 17 15 17 22 28 33 38 44 52 57 61 64 68
6 6 3 5 4 4 32 9 24 11 6 7 15 21 28 43 47 60 67 75 80 86 87 82 68 56 49 36 26 22 20 18 17 19 24 30 36 39 44 51 56 61 64 67
4 12 8 8 10 9 21 50 31 21 22 13 14 21 33 47 54 60 70 81 89 86 75 63 57 49 40 32 28 25 24 22 19 19 24 31 37 41 45 49 53 57 56 58
12 12 9 8 9 7 4 7 20 35 28 22 23 29 38 48 59 62 70 77 78 73 65 61 54 46 39 34 31 31 29 25 20 20 26 32 37 41 45 50 52 49 52 50
Wind_Direction_500mb
194 191 204 203 208 246 175 203 150 103 111 149 204 205 178 169 178 219 167 183 178 172 187 201 210 209 208 209 207 214 224 237 240 230 227 233 238 245 252 252 262 266 268 279
174 211 202 219 215 230 267 178 167 60 104 98 203 225 241 162 176 199 191 160 178 200 226 223 225 223 224 221 215 213 218 229 245 249 232 236 244 251 260 261 260 265 272 276
177 166 233 216 187 182 240 174 154 130 125 296 73 257 206 160 134 185 206 197 191 165 198 225 218 225 228 223 217 216 212 213 233 243 243 237 244 249 254 262 269 271 273 275
230 196 167 161 185 180 181 52 132 124 147 201 172 262 190 157 163 199 177 185 177 181 170 197 207 214 220 223 222 219 210 205 208 226 244 243 238 245 257 270 273 282 285 286
171 153 158 188 192 193 170 119 129 142 182 144 225 105 232 136 181 186 172 157 149 157 176 176 180 176 179 193 196 204 205 203 202 202 204 222 262 245 238 244 260 262 264 273
91 284 151 164 50 107 139 95 77 84 116 300 206 165 226 181 202 146 151 161 159 162 159 150 146 139 133 131 140 157 177 186 192 200 197 199 199 195 200 248 242 258 269 272
128 144 90 151 83 115 143 140 117 154 191 219 334 125 244 181 154 152 155 156 159 159 145 136 139 136 130 129 128 132 142 144 152 167 173 180 166 137 112 95 84 70 46 20
163 201 167 194 169 174 200 170 151 179 175 208 333 224 243 77 136 152 155 159 154 152 153 151 146 136 131 128 126 126 126 123 125 127 125 123 116 112 107 97 79 59 35 16
170 113 55 63 20 155 207 216 121 105 36 75 208 257 129 122 123 138 151 158 154 154 156 149 143 140 136 132 128 127 126 123 122 121 117 114 109 102 89 73 55 38 22 7
168 114 354 348 316 14 213 145 85 69 131 226 235 232 201 197 183 158 158 168 162 161 160 156 152 146 141 138 135 132 131 129 124 122 119 113 102 88 69 51 29 17 6 357
15 105 126 135 217 167 148 181 191 153 166 172 162 255 298 191 183 173 173 175 166 168 165 163 158 154 150 146 144 141 137 132 130 124 112 99 81 60 40 22 11 1 354 346
110 105 136 176 12 354 329 199 180 151 227 93 147 271 321 179 175 175 176 175 174 173 171 170 166 162 159 154 147 145 143 140 128 115 102 88 64 37 13 3 355 347 342 337
175 153 87 21 338 20 230 185 231 112 89 199 136 255 327 292 164 178 172 171 174 174 177 173 168 167 162 160 159 156 147 140 130 121 103 79 45 17 358 350 343 337 332 328
154 144 165 192 190 136 192 201 202 187 133 183 218 177 213 177 166 172 173 172 175 178 180 177 170 172 172 169 162 156 152 146 136 127 105 46 8 356 347 339 332 326 323 322
157 204 194 204 94 123 186 188 185 207 225 184 236 220 194 190 175 181 173 167 175 182 185 181 179 181 179 175 167 163 160 155 148 133 65 7 348 337 330 325 322 322 324 326
144 250 161 96 71 57 33 222 195 208 227 237 256 257 178 192 186 168 171 175 180 186 187 184 188 186 183 177 174 170 169 166 159 167 313 332 331 330 328 326 327 328 329 328
152 144 113 233 98 88 326 222 203 209 220 213 229 234 158 165 179 180 182 190 191 189 188 190 191 187 181 179 180 176 174 173 181 267 325 329 330 329 328 327 328 328 327 326
152 119 93 131 119 202 245 171 194 210 217 218 246 246 199 192 197 196 202 200 190 191 193 196 191 187 183 182 179 179 179 186 214 307 320 323 325 326 326 327 327 326 324 323
103 128 148 155 186 306 272 215 168 173 241 213 220 234 201 210 193 210 206 204 204 202 198 198 192 186 181 181 182 183 189 205 265 306 317 320 324 328 328 326 325 323 321 321
46 11 153 147 174 206 272 185 166 89 263 197 216 211 168 153 189 219 204 204 197 196 197 194 188 184 183 181 184 192 204 234 288 307 318 322 326 326 325 325 325 325 325 323
168 152 201 207 225 277 199 161 143 157 248 186 211 211 183 194 220 228 199 192 196 196 192 190 183 182 182 185 193 204 219 260 288 300 311 321 322 324 326 329 329 327 325 322
185 175 183 179 205 249 146 85 168 206 175 198 212 207 199 206 203 190 187 190 192 191 186 184 181 182 184 191 200 211 235 265 276 292 306 315 320 325 327 328 327 325 325 325
195 198 184 189 218 167 176 143 190 162 179 179 207 212 217 198 184 181 182 187 187 187 182 182 184 182 185 191 199 218 243 255 267 286 305 314 319 321 322 325 327 328 329 328
316 359 111 82 358 256 214 217 210 224 243 249 228 224 219 201 186 182 184 183 183 182 183 184 184 186 187 191 208 230 239 246 264 289 306 313 316 318 321 324 326 326 328 327
139 143 170 286 245 244 227 229 233 236 251 250 228 221 216 202 188 189 185 185 185 183 181 185 188 188 193 204 220 230 235 244 261 285 304 313 315 317 320 321 323 325 328 330
191 176 176 215 243 112 86 344 238 235 248 246 233 208 203 205 196 193 191 191 186 185 188 188 192 198 206 219 227 229 231 243 261 288 304 310 312 315 318 319 322 325 329 334
Wind_Speed_850mb
36 15 28 26 19 18 19 18 12 13 6 8 13 10 17 28 17 11 17 19 25 23 29 33 38 46 48 46 41 44 42 45 41 38 39 38 38 36 37 36 36 37 35 34
15 26 19 19 23 19 11 18 12 11 9 5 14 19 14 26 20 20 20 15 14 19 23 24 30 34 40 46 50 49 47 43 44 39 40 41 38 39 37 35 37 40 44 43
16 12 22 23 11 12 12 16 11 10 8 2 2 8 17 3 10 12 14 20 19 18 16 14 17 25 32 38 45 52 50 45 42 37 32 33 38 39 33 29 29 30 32 33
9 8 16 15 16 16 10 6 15 24 14 9 12 8 14 14 14 14 20 19 21 24 21 17 17 18 22 28 37 45 48 47 42 29 30 25 26 27 25 23 21 20 22 26
9 12 14 13 14 14 5 15 14 11 8 5 6 3 2 18 15 15 22 23 22 24 23 16 12 11 11 13 18 30 40 49 48 46 23 18 15 11 9 12 15 15 18 17
7 3 4 6 10 9 14 17 12 8 6 3 11 13 8 12 15 17 28 27 26 24 24 23 19 17 20 20 20 23 28 31 34 39 40 30 19 16 16 14 10 13 13 16
7 5 4 6 17 3 11 14 5 3 2 10 14 6 14 7 13 23 33 40 34 26 27 30 28 28 29 31 33 33 31 32 28 25 26 21 17 15 14 13 11 9 7 7
14 8 15 10 11 16 13 15 10 12 9 8 7 12 10 6 24 51 45 44 41 38 33 31 34 38 38 38 39 40 41 43 39 35 32 27 25 22 18 15 13 12 12 14
15 5 6 8 7 12 12 11 7 13 4 8 10 9 2 4 14 39 48 47 42 38 35 34 35 38 41 42 42 40 40 41 38 35 32 27 24 20 18 16 14 15 16 18
11 11 6 2 3 3 4 14 7 1 9 8 11 7 10 17 25 23 31 46 46 43 41 38 37 39 40 40 40 39 37 37 35 31 27 23 18 16 15 15 16 18 20 24
1 9 3 6 10 13 4 7 6 9 8 10 5 11 2 35 36 33 40 49 54 51 47 44 42 40 40 40 40 38 34 31 28 24 21 18 15 14 14 16 19 23 28 32
3 10 8 5 1 4 6 11 13 9 7 2 6 10 6 4 38 50 50 53 55 52 50 48 46 43 41 40 37 34 30 26 23 20 17 13 12 13 15 18 22 26 31 37
14 6 7 6 5 3 8 8 7 10 7 9 10 11 5 1 35 51 55 60 59 53 50 47 46 44 42 40 38 33 29 24 21 16 12 10 9 11 16 22 29 35 42 47
12 7 14 19 11 16 15 19 16 15 6 9 12 8 6 12 26 45 58 66 65 61 56 53 48 46 44 41 37 33 28 23 19 13 8 6 11 19 26 32 37 41 46 49
5 13 12 4 6 4 14 27 23 18 37 17 38 19 16 20 24 55 57 64 66 66 63 59 57 54 50 45 40 34 27 21 15 8 5 9 16 22 28 35 40 43 45 48
6 5 6 4 11 10 2 8 27 37 41 23 22 17 16 50 50 51 61 63 64 72 71 67 66 60 55 49 43 36 29 21 13 5 4 12 21 30 36 39 41 46 49 54
15 11 6 15 8 9 6 25 26 26 29 38 36 43 8 14 36 55 64 79 78 79 81 79 72 65 58 51 43 36 28 19 10 4 11 21 30 36 39 41 44 50 56 61
13 12 5 7 6 9 28 17 27 36 24 34 27 12 22 31 67 75 87 91 75 79 85 83 77 69 61 54 45 35 26 17 7 9 19 27 32 35 39 44 51 58 64 68
7 9 8 10 8 10 14 11 16 20 32 23 42 36 25 28 48 45 76 81 89 91 89 88 80 71 62 53 44 33 23 13 9 16 23 28 31 36 43 50 57 63 70 72
7 5 6 7 12 21 15 15 24 15 28 25 38 17 22 38 19 23 73 80 80 82 90 85 78 71 62 52 41 31 22 13 14 19 22 27 32 39 46 55 60 63 67 70
8 3 26 22 7 16 11 15 38 20 18 24 54 55 56 28 44 40 66 71 81 88 89 86 79 71 60 48 39 30 19 14 16 18 19 24 33 42 49 54 58 63 65 66
26 22 12 9 18 34 20 9 27 8 7 7 14 29 47 47 22 35 71 84 90 91 83 81 78 69 59 46 36 27 17 16 16 15 19 26 33 40 46 52 56 58 63 69
7 7 12 17 10 1 38 8 16 6 6 6 12 17 31 47 40 59 75 83 86 83 87 81 74 67 51 45 33 21 18 17 15 17 22 28 33 38 44 52 57 61 64 68
6 6 3 5 4 4 32 9 24 11 6 7 15 21 28 43 47 60 67 75 80 86 87 82 68 56 49 36 26 22 20 18 17 19 24 30 36 39 44 51 56 61 64 67
4 12 8 8 10 9 21 50 31 21 22 13 14 21 33 47 54 60 70 81 89 86 75 63 57 49 40 32 28 25 24 22 19 19 24 31 37 41 45 49 53 57 56 58
12 12 9 8 9 7 4 7 20 35 28 22 23 29 38 48 59 62 70 77 78 73 65 61 54 46 39 34 31 31 29 25 20 20 26 32 37 41 45 50 52 49 52 50
Wind_Direction_850mb
194 191 204 203 208 246 175 203 150 103 111 149 204 205 178 169 178 219 167 183 178 172 187 201 210 209 208 209 207 214 224 237 240 230 227 233 238 245 252 252 262 266 268 279
174 211 202 219 215 230 267 178 167 60 104 98 203 225 241 162 176 199 191 160 178 200 226 223 225 223 224 221 215 213 218 229 245 249 232 236 244 251 260 261 260 265 272 276
177 166 233 216 187 182 240 174 154 130 125 296 73 257 206 160 134 185 206 197 191 165 198 225 218 225 228 223 217 216 212 213 233 243 243 237 244 249 254 262 269 271 273 275
230 196 167 161 185 180 181 52 132 124 147 201 172 262 190 157 163 199 177 185 177 181 170 197 207 214 220 223 222 219 210 205 208 226 244 243 238 245 257 270 273 282 285 286
171 153 158 188 192 193 170 119 129 142 182 144 225 105 232 136 181 186 172 157 149 157 176 176 180 176 179 193 196 204 205 203 202 202 204 222 262 245 238 244 260 262 264 273
91 284 151 164 50 107 139 95 77 84 116 300 206 165 226 181 202 146 151 161 159 162 159 150 146 139 133 131 140 157 177 186 192 200 197 199 199 195 200 248 242 258 269 272
128 144 90 151 83 115 143 140 117 154 191 219 334 125 244 181 154 152 155 156 159 159 145 136 139 136 130 129 128 132 142 144 152 167 173 180 166 137 112 95 84 70 46 20
163 201 167 194 169 174 200 170 151 179 175 208 333 224 243 77 136 152 155 159 154 152 153 151 146 136 131 128 126 126 126 123 125 127 125 123 116 112 107 97 79 59 35 16
170 113 55 63 20 155 207 216 121 105 36 75 208 257 129 122 123 138 151 158 154 154 156 149 143 140 136 132 128 127 126 123 122 121 117 114 109 102 89 73 55 38 22 7
168 114 354 348 316 14 213 145 85 69 131 226 235 232 201 197 183 158 158 168 162 161 160 156 152 146 141 138 135 132 131 129 124 122 119 113 102 88 69 51 29 17 6 357
15 105 126 135 217 167 148 181 191 153 166 172 162 255 298 191 183 173 173 175 166 168 165 163 158 154 150 146 144 141 137 132 130 124 112 99 81 60 40 22 11 1 354 346
110 105 136 176 12 354 329 199 180 151 227 93 147 271 321 179 175 175 176 175 174 173 171 170 166 162 159 154 147 145 143 140 128 115 102 88 64 37 13 3 355 347 342 337
175 153 87 21 338 20 230 185 231 112 89 199 136 255 327 292 164 178 172 171 174 174 177 173 168 167 162 160 159 156 147 140 130 121 103 79 45 17 358 350 343 337 332 328
154 144 165 192 190 136 192 201 202 187 133 183 218 177 213 177 166 172 173 172 175 178 180 177 170 172 172 169 162 156 152 146 136 127 105 46 8 356 347 339 332 326 323 322
157 204 194 204 94 123 186 188 185 207 225 184 236 220 194 190 175 181 173 167 175 182 185 181 179 181 179 175 167 163 160 155 148 133 65 7 348 337 330 325 322 322 324 326
144 250 161 96 71 57 33 222 195 208 227 237 256 257 178 192 186 168 171 175 180 186 187 184 188 186 183 177 174 170 169 166 159 167 313 332 331 330 328 326 327 328 329 328
152 144 113 233 98 88 326 222 203 209 220 213 229 234 158 165 179 180 182 190 191 189 188 190 191 187 181 179 180 176 174 173 181 267 325 329 330 329 328 327 328 328 327 326
152 119 93 131 119 202 245 171 194 210 217 218 246 246 199 192 197 196 202 200 190 191 193 196 191 187 183 182 179 179 179 186 214 307 320 323 325 326 326 327 327 326 324 323
103 128 148 155 186 306 272 215 168 173 241 213 220 234 201 210 193 210 206 204 204 202 198 198 192 186 181 181 182 183 189 205 265 306 317 320 324 328 328 326 325 323 321 321
46 11 153 147 174 206 272 185 166 89 263 197 216 211 168 153 189 219 204 204 197 196 197 194 188 184 183 181 184 192 204 234 288 307 318 322 326 326 325 325 325 325 325 323
168 152 201 207 225 277 199 161 143 157 248 186 211 211 183 194 220 228 199 192 196 196 192 190 183 182 182 185 193 204 219 260 288 300 311 321 322 324 326 329 329 327 325 322
185 175 183 179 205 249 146 85 168 206 175 198 212 207 199 206 203 190 187 190 192 191 186 184 181 182 184 191 200 211 235 265 276 292 306 315 320 325 327 328 327 325 325 325
195 198 184 189 218 167 176 143 190 162 179 179 207 212 217 198 184 181 182 187 187 187 182 182 184 182 185 191 199 218 243 255 267 286 305 314 319 321 322 325 327 328 329 328
316 359 111 82 358 256 214 217 210 224 243 249 228 224 219 201 186 182 184 183 183 182 183 184 184 186 187 191 208 230 239 246 264 289 306 313 316 318 321 324 326 326 328 327
139 143 170 286 245 244 227 229 233 236 251 250 228 221 216 202 188 189 185 185 185 183 181 185 188 188 193 204 220 230 235 244 261 285 304 313 315 317 320 321 323 325 328 330
191 176 176 215 243 112 86 344 238 235 248 246 233 208 203 205 196 193 191 191 186 185 188 188 192 198 206 219 227 229 231 243 261 288 304 310 312 315 318 319 322 325 329 334